sat.trackr.live / text

‹ back to catalog

STARLINK-2436

NORAD 48101 · 2021-027K

PAYLOAD ACTIVE UNKNOWN

§ Identity

Operator
Country
US
Launch date
2021-04-07
Launch site
AFETR
Launch vehicle
Mass (kg)
RCS (m²)

Purposes: comms

External: N2YO · Heavens-Above · Gunter

§ Orbital elements

Epoch: 2026-05-24T17:57:33.142464Z

Period
94.01 min
Inclination
53.1589°
Eccentricity
0.0001408
Mean motion
15.31705002 rev/d
Perigee alt
469.8 km
Apogee alt
471.7 km
Semi-major
6,848.9 km
B*
6.2656e-5
RAAN
161.3031°
Arg perigee
82.0444°
Mean anomaly
278.0718°
Rev number
28,431

§ Raw data

STARLINK-24361 48101U 21027K   26144.74830026  .00001580  00000+0  62656-4 0  99952 48101  53.1589 161.3031 0001408  82.0444 278.0718 15.31705002284312

JSON: /api/v1/satellites/48101 · /tle

For live sub-satellite position, see the globe view (requires WebGL).

§ Visibility from observer

Set your observer location to see the next 7 days of passes ≥ 10°. The values pass through the URL so the page stays shareable.

No JS? Fill the form by hand. The geolocation button needs JavaScript.